Flag for U.S.A. Weather past 2 weeks in Greenville, South Carolina, U.S.A.

Now
67 °F

Low clouds.


Feels Like: 67 °F
Forecast: 66 / 81 °F
Wind: 9 mph from Northeast

Location: Greenville Downtown Airport

Current Time: Aug 2, 2014 at 2:33:33 AM

Latest Report: Aug 2, 2014 at 1:53 AM


Visibility: 10 mi

Pressure: 30.10 "Hg

Humidity: 87%

Dew point: 63 °F

Location of GreenvilleLocation

Historic Weather in Greenville — Graph

°F

Greenville temperature yesterday

Maximum temperature yesterday: 71 °F (at 4:53 PM)
Minimum temperature yesterday: 63 °F (at 6:53 AM)
Average temperature yesterday: 67 °F

Past Weeks' High & Low Weather Summary

 TemperatureHumidityPressure
High92 °F (Jul 27, 2:53 PM)96% (Jul 31, 9:58 AM)30.20 "Hg (Jul 31, 9:58 AM)
Low63 °F (Jul 30, 5:53 AM)25% (Jul 28, 4:53 PM)29.83 "Hg (Jul 28, 4:53 AM)
Average75 °F74%30.04 "Hg
* Reported Jul 18 12:53 AM — Aug 2 12:53 AM, Greenville, Weather by CustomWeather, © 2014

Note: Actual official high and low records may vary slightly from our data, if they occured in-between our weather recording intervals... More about our weather records

Advertising

Greenville weather history for previous 24 hours

 ConditionsComfort  
Time TempWeatherWind HumidityBarometerVisibility
12:53 AM
Aug 2
67 °FOvercast.7 mph87%30.11 "Hg10 mi
11:53 PM
Aug 1
67 °FOvercast.9 mph85%30.11 "Hg10 mi
11:00 PM68 °FMostly cloudy.10 mph82%30.12 "Hg10 mi
9:53 PM67 °FOvercast.9 mph85%30.10 "Hg10 mi
8:53 PM65 °FOvercast.7 mph91%30.09 "Hg10 mi
7:53 PM67 °FOvercast.9 mph85%30.09 "Hg10 mi
6:53 PM69 °FPartly sunny.15 mph76%30.09 "Hg10 mi
5:53 PM69 °FMostly cloudy.13 mph76%30.09 "Hg10 mi
5:02 PM70 °FPartly sunny.14 mph73%30.11 "Hg10 mi
4:53 PM71 °FScattered clouds.14 mph71%30.08 "Hg10 mi
3:53 PM69 °FOvercast.17 mph76%30.09 "Hg10 mi
2:53 PM70 °FOvercast.14 mph76%30.09 "Hg10 mi
1:53 PM69 °FOvercast.10 mph79%30.11 "Hg10 mi
12:53 PM68 °FOvercast.10 mph82%30.11 "Hg10 mi
11:53 AM69 °FOvercast.14 mph79%30.11 "Hg10 mi
10:53 AM68 °FLight rain. Mostly cloudy.16 mph82%30.11 "Hg10 mi
9:53 AM66 °FBroken clouds.13 mph87%30.10 "Hg10 mi
8:53 AM64 °FScattered clouds.15 mph94%30.10 "Hg10 mi
7:53 AM63 °FPartly sunny.13 mph93%30.09 "Hg10 mi
6:53 AM63 °FLight rain. Overcast.15 mph93%30.08 "Hg10 mi
5:53 AM65 °FLight rain. Low clouds.10 mph94%30.08 "Hg10 mi
4:53 AM65 °FLow clouds.8 mph94%30.08 "Hg9 mi
4:04 AM65 °FLight rain. Mostly cloudy.8 mph94%30.09 "Hg9 mi
3:53 AM65 °FLight rain. Mostly cloudy.9 mph94%30.08 "Hg8 mi
2:53 AM65 °FLight rain. Fog.9 mph94%30.09 "Hg6 mi
2:02 AM66 °FLight rain. Mostly cloudy.7 mph93%30.13 "Hg7 mi
Weather by CustomWeather, © 2014

See weather overviewHow to use our weather pages